Tracking 19817 objects as of 19-Aug-2019
HD Live streaming from Space Station
objects crossing your sky now

COSMOS 2251 DEB

Track COSMOS 2251 DEB now!
10-day predictions


NORAD ID: 34482
Int'l Code: 1993-036UB
Perigee: 717.3 km
Apogee: 823.3 km
Inclination: 74.0 °
Period: 100.1 minutes
Semi major axis: 7141 km
RCS: 0.033 m2 (small)
Launch date: June 16, 1993
Source: Commonwealth of Independent States (former USSR) (CIS)
Launch site: PLESETSK MISSILE AND SPACE COMPLEX (PKMTR)

Note: This is SATELLITE DEBRIS
aabbcc
Your satellite tracking list
Your tracking list is empty




NASA's NSSDC Master Catalog

Two Line Element Set (TLE):
1 34482U 93036UB  19230.94805400 +.00000451 +00000-0 +15101-3 0  9998
2 34482 074.0496 208.0905 0074206 126.4484 299.9658 14.38601465548277
Source of the keplerian elements: AFSPC